WB8ZTP Weather Reports


Display with metric or nautical units.
time (UTC)temp
F
wind
direction
speed
MPH
gust
MPH
rain 1hr
in
rain 24hr
in
rain mn
in
humidity
%
barometer
mb
20190325010200 46 200 0.0 0.0 0.03 0.03 0.03 88 1019.1
20190325004635 47 200 0.0 0.0 0.02 0.02 0.02 86 1019.4
20190325003109 48 200 0.0 0.0 0.01 0.01 0.01 82 1019.4
20190325001653 50 200 0.0 0.0 0.00 0.00 0.00 74 1019.5
20190325000147 51 200 0.0 0.0 0.00 0.00 0.00 63 1019.7
20190324234618 52 229 0.0 6.0 0.00 0.00 0.00 59 1019.9
20190324233118 53 227 2.0 9.0 0.00 0.00 0.00 54 1020.0
20190324231647 53 225 3.0 9.0 0.00 0.00 0.00 47 1019.9
20190324230224 54 209 2.0 15.0 0.00 0.00 0.00 44 1019.9
20190324224644 55 207 8.0 17.0 0.00 0.00 0.00 40 1020.0
20190324223248 56 209 6.0 17.0 0.00 0.00 0.00 38 1019.9
20190324221622 56 301 2.0 6.0 0.00 0.00 0.00 37 1019.7
20190324220133 57 265 1.0 10.0 0.00 0.00 0.00 35 1019.5
20190324214710 57 276 1.0 5.0 0.00 0.00 0.00 37 1019.6
20190324213109 57 223 1.0 8.0 0.00 0.00 0.00 34 1019.8
20190324211656 58 261 1.0 6.0 0.00 0.00 0.00 33 1019.8
20190324210133 58 277 1.0 6.0 0.00 0.00 0.00 35 1019.9
20190324204615 57 229 1.0 6.0 0.00 0.00 0.00 34 1019.6
20190324203153 58 254 3.0 8.0 0.00 0.00 0.00 34 1019.9
20190324201633 57 234 3.0 10.0 0.00 0.00 0.00 34 1019.8
20190324200111 58 244 1.0 9.0 0.00 0.00 0.00 34 1019.7
20190324194611 58 194 2.0 10.0 0.00 0.00 0.00 31 1019.9
20190324193218 58 240 3.0 7.0 0.00 0.00 0.00 29 1019.7
20190324191605 58 238 3.0 8.0 0.00 0.00 0.00 30 1020.0
20190324190147 58 203 4.0 12.0 0.00 0.00 0.00 29 1020.3
20190324184621 58 210 3.0 8.0 0.00 0.00 0.00 30 1020.6
20190324183113 57 246 4.0 9.0 0.00 0.00 0.00 30 1020.8
20190324181542 57 229 4.0 9.0 0.00 0.00 0.00 29 1020.8
20190324180101 57 233 3.0 8.0 0.00 0.00 0.00 30 1021.1
20190324174557 56 213 4.0 9.0 0.00 0.00 0.00 32 1021.4
20190324173054 56 159 3.0 9.0 0.00 0.00 0.00 33 1021.4
20190324171545 56 216 4.0 11.0 0.00 0.00 0.00 38 1021.9
20190324170035 55 244 3.0 10.0 0.00 0.00 0.00 36 1022.0
20190324164543 54 215 3.0 9.0 0.00 0.00 0.00 38 1022.4
20190324163033 53 263 1.0 9.0 0.00 0.00 0.00 36 1022.4
20190324161523 52 209 3.0 8.0 0.00 0.00 0.00 43 1022.8
20190324160010 51 182 2.0 9.0 0.00 0.00 0.00 43 1023.0
20190324154635 50 225 1.0 6.0 0.00 0.00 0.00 46 1023.4
20190324153133 49 231 0.0 8.0 0.00 0.00 0.00 45 1023.3
20190324151637 48 244 2.0 8.0 0.00 0.00 0.00 42 1023.6
20190324150159 48 209 1.0 6.0 0.00 0.00 0.00 42 1023.6
20190324144638 47 241 1.0 6.0 0.00 0.00 0.00 46 1023.6
20190324143146 45 163 0.0 3.0 0.00 0.00 0.00 48 1023.7
20190324141632 44 173 0.0 0.0 0.00 0.00 0.00 52 1023.9
20190324140125 42 173 0.0 1.0 0.00 0.00 0.00 53 1023.7
20190324134644 41 176 0.0 5.0 0.00 0.00 0.00 54 1023.4
20190324133107 40 89 0.0 2.0 0.00 0.00 0.00 58 1023.6
20190324131549 39 167 0.0 0.0 0.00 0.00 0.00 64 1023.9
20190324130036 38 195 0.0 2.0 0.00 0.00 0.00 64 1024.5
20190324124608 37 178 0.0 0.0 0.00 0.00 0.00 69 1024.1
20190324123047 35 207 0.0 1.0 0.00 0.00 0.00 72 1024.5
20190324121518 34 28 0.0 0.0 0.00 0.00 0.00 80 1023.9
20190324120022 34 215 0.0 0.0 0.00 0.00 0.00 77 1024.2
20190324114528 34 215 0.0 0.0 0.00 0.00 0.00 76 1024.6
20190324113046 34 215 0.0 0.0 0.00 0.00 0.00 72 1024.7
20190324111509 34 215 0.0 0.0 0.00 0.00 0.00 72 1024.6
20190324110012 33 215 0.0 2.0 0.00 0.00 0.00 72 1024.7
20190324104506 31 214 0.0 0.0 0.00 0.00 0.00 78 1024.5
20190324103007 31 214 0.0 0.0 0.00 0.00 0.00 79 1024.5
20190324101505 31 214 0.0 0.0 0.00 0.00 0.00 78 1024.4
20190324094726 31 214 0.0 0.0 0.00 0.00 0.00 77 1024.6
20190324093140 32 214 0.0 0.0 0.00 0.00 0.00 78 1024.7
20190324091703 31 214 0.0 0.0 0.00 0.00 0.00 80 1024.8
20190324090150 31 214 0.0 0.0 0.00 0.00 0.00 82 1024.8
20190324084744 30 214 0.0 0.0 0.00 0.00 0.00 83 1024.7
20190324083132 30 214 0.0 0.0 0.00 0.00 0.00 84 1024.8
20190324081624 30 214 0.0 0.0 0.00 0.00 0.00 83 1024.8
20190324080211 30 214 0.0 0.0 0.00 0.00 0.00 83 1024.9
20190324074655 30 214 0.0 0.0 0.00 0.00 0.00 82 1025.0
20190324073142 30 214 0.0 0.0 0.00 0.00 0.00 82 1024.9
20190324071712 30 214 0.0 0.0 0.00 0.00 0.00 81 1024.9
20190324070124 30 214 0.0 0.0 0.00 0.00 0.00 73 1025.1
20190324064624 31 214 0.0 0.0 0.00 0.00 0.00 78 1025.3
20190324063140 31 214 0.0 0.0 0.00 0.00 0.00 80 1025.3
20190324061607 31 214 0.0 0.0 0.00 0.00 0.00 77 1025.3
20190324060058 31 214 0.0 0.0 0.00 0.00 0.00 74 1025.3
20190324054613 31 214 0.0 0.0 0.00 0.00 0.00 76 1025.4
20190324053116 31 214 0.0 0.0 0.00 0.00 0.00 75 1025.4
20190324051651 31 214 0.0 0.0 0.00 0.00 0.00 79 1025.3
20190324050126 32 214 0.0 0.0 0.00 0.00 0.00 78 1025.3
20190324044626 32 214 0.0 0.0 0.00 0.00 0.00 79 1025.5
20190324043103 32 214 0.0 0.0 0.00 0.00 0.00 79 1025.6
20190324041612 32 214 0.0 0.0 0.00 0.00 0.00 74 1025.8
20190324040049 32 214 0.0 0.0 0.00 0.00 0.00 73 1025.9
20190324034532 32 214 0.0 0.0 0.00 0.00 0.00 74 1025.8
20190324033050 32 214 0.0 0.0 0.00 0.00 0.00 73 1026.0
20190324031556 32 214 0.0 0.0 0.00 0.00 0.00 75 1026.0
20190324030037 33 214 0.0 0.0 0.00 0.00 0.00 74 1026.0
20190324024553 33 214 0.0 0.0 0.00 0.00 0.00 74 1026.0
20190324023045 33 209 0.0 0.0 0.00 0.00 0.00 74 1026.1
20190324021549 34 209 0.0 0.0 0.00 0.00 0.00 71 1026.3
20190324020038 34 209 0.0 0.0 0.00 0.00 0.00 71 1026.2
20190324014554 35 209 0.0 0.0 0.00 0.00 0.00 70 1026.2
20190324013031 35 209 0.0 0.0 0.00 0.00 0.00 69 1026.2
20190324011539 36 209 0.0 0.0 0.00 0.00 0.00 69 1026.1